Find NOAA 9

NORAD ID: 15427 Int'l Des: 1984-123 Owner: NOAA Country: US operational
LEOCIRCULARRETROGRADESSO

Live Position

Loading 3D Globe...

About NOAA 9

Description loading...

Upcoming Passes

Passes for default location (London). Set your location on the main map for personalized predictions.

Altitude History

Loading altitude history...

Two-Line Element Set

1 15427U 84123A 26105.65440453 .00000043 00000-0 44455-4 0 9995
2 15427 99.1048 130.8281 0014984 163.3410 306.8444 14.17051091134566
Epoch: Apr 15, 2026 • Age: 17 hours

Current Status

Altitude 846.2 km
Velocity 7.43 km/s
Sub-Earth Point 31.97°N, 157.04°E
Launch Date Dec 12, 1984
Age 41.3 years
Type weather

Technical Details

Classification Payload
Mass 1030.00 kg
Dry Mass 1030.00 kg
Total Mass 1712.00 kg
Length 4.20 m
Diameter 1.90 m
Span 8.00 m
Shape Box + Pan
Manufacturer RCA
Bus Type ATN
Phase Status In Orbit
Owner/State NOAA/US

Most Searched